Location: Meriden
(44.0740°N, 93.3870°W)
Time: 10:09:55
(UTC-05:00)

Amateur Radio Satellites - All Passes

Search period start: 30 July 2014 09:39
Search period end: 31 July 2014 09:39
Location: Meriden, 44.0740°N, 93.3870°W

Satellite Date Start Highest point End Downlink Frequencies (MHz)
Time Altitude Azimuth
Sapphire 30 Jul 09:42:50 09:48:12 58° 55° (NE) 09:53:33 437.095 MHz 1200 baud AX-25 AFSK
Oscar 11 30 Jul 09:47:15 09:48:40 11° 89° (E) 09:50:05 145.825 FM, Beacon 2401.500 USB
PCSat 30 Jul 10:16:07 10:21:34 75° 242° (WSW) 10:26:57 145.825 MHz
KITSAT 1 30 Jul 10:33:36 10:38:18 16° 348° (NNW) 10:43:00 435.175 FM
UKube-1 30 Jul 10:37:22 10:41:44 73° 103° (ESE) 10:46:04 145.840 MHz, 145.915 MHz
Oscar 11 30 Jul 11:21:00 11:25:20 70° 285° (WNW) 11:29:39 145.825 FM, Beacon 2401.500 USB
HO-68 30 Jul 11:26:16 11:33:04 49° 295° (WNW) 11:39:51 435.675 MHz FM
Sapphire 30 Jul 11:27:07 11:31:12 22° 253° (WSW) 11:35:15 437.095 MHz 1200 baud AX-25 AFSK
RS-15 30 Jul 11:31:50 11:34:55 12° 94° (E) 11:37:58 29.354 - 29.394 USB, Beacon 29.352 USB
FUNcube-1 30 Jul 11:46:28 11:50:40 83° 103° (ESE) 11:54:54 145.950 - 145.970 MHz USB
UKube-1 30 Jul 12:15:26 12:17:22 13° 300° (WNW) 12:19:17 145.840 MHz, 145.915 MHz
SO-50 30 Jul 12:18:42 12:22:45 35° 116° (ESE) 12:26:53 436.795 FM
KITSAT 1 30 Jul 12:32:22 12:37:35 18° 19° (NNE) 12:42:47 435.175 FM
Oscar 19 30 Jul 12:39:06 12:42:37 19° 61° (ENE) 12:46:09 437.125 CW, 437.150 USB
AO-Echo 30 Jul 12:45:41 12:47:19 11° 56° (NE) 12:48:57 ?
Oscar 16 30 Jul 13:06:29 13:11:02 34° 67° (ENE) 13:15:36 437.025 USB, Beacon 2401.1428
HO-68 30 Jul 13:17:34 13:19:06 11° 316° (NW) 13:20:39 435.675 MHz FM
FUNcube-1 30 Jul 13:25:45 13:26:27 10° 300° (WNW) 13:27:10 145.950 - 145.970 MHz USB
JAS-1B 30 Jul 13:30:38 13:38:31 33° 56° (NE) 13:46:51 435.800 - 435.900 CW/SSB
ITAMSAT 1 30 Jul 13:30:57 13:35:15 27° 64° (ENE) 13:39:33 435.822 SSB
RS-15 30 Jul 13:33:55 13:44:44 60° 115° (ESE) 13:55:21 29.354 - 29.394 USB, Beacon 29.352 USB
Uribyol 2 30 Jul 13:49:21 13:54:10 40° 68° (ENE) 13:58:59 436.500 FM
AO-27 30 Jul 13:49:56 13:54:45 39° 68° (ENE) 13:59:35 436.795 MHz FM
AO-7 30 Jul 13:53:02 13:55:47 12° 38° (NE) 13:58:33 29.400 - 29.500 MHz
TMSAT-1 30 Jul 13:58:06 14:01:07 16° 58° (ENE) 14:04:09 436.925 FM
SO-50 30 Jul 13:59:17 14:03:19 32° 315° (NW) 14:07:27 436.795 FM
UOSAT-12 30 Jul 14:10:46 14:14:57 35° 116° (ESE) 14:19:12 437.025 FM, 437.400 FM
Oscar 19 30 Jul 14:16:27 14:21:30 61° 259° (WSW) 14:26:35 437.125 CW, 437.150 USB
AO-Echo 30 Jul 14:19:52 14:25:09 72° 74° (ENE) 14:30:28 ?
Gurwin Techsat 1B 30 Jul 14:21:31 14:26:10 32° 66° (ENE) 14:30:50 435.225 FM
KITSAT 1 30 Jul 14:27:42 14:35:25 45° 46° (NE) 14:43:03 435.175 FM
Oscar 16 30 Jul 14:45:49 14:50:22 32° 264° (W) 14:54:57 437.025 USB, Beacon 2401.1428
ITAMSAT 1 30 Jul 15:09:35 15:14:31 43° 261° (W) 15:19:29 435.822 SSB
JAS-1B 30 Jul 15:19:01 15:28:03 76° 257° (WSW) 15:38:02 435.800 - 435.900 CW/SSB
Uribyol 2 30 Jul 15:29:21 15:33:44 27° 265° (W) 15:38:09 436.500 FM
AO-27 30 Jul 15:29:53 15:34:21 28° 265° (W) 15:38:50 436.795 MHz FM
TMSAT-1 30 Jul 15:35:04 15:40:22 81° 256° (WSW) 15:45:42 436.925 FM
AO-7 30 Jul 15:38:41 15:46:29 46° 61° (ENE) 15:54:18 29.400 - 29.500 MHz
Saudisat 1A 30 Jul 15:43:05 15:47:14 38° 48° (NE) 15:51:21 436.775 MHz
RS-15 30 Jul 15:46:54 15:57:27 48° 320° (NW) 16:07:57 29.354 - 29.394 USB, Beacon 29.352 USB
UOSAT-12 30 Jul 15:50:53 15:55:06 34° 315° (NW) 15:59:24 437.025 FM, 437.400 FM
Gurwin Techsat 1B 30 Jul 16:01:12 16:06:03 36° 263° (W) 16:10:57 435.225 FM
AO-Echo 30 Jul 16:01:16 16:04:26 16° 271° (W) 16:07:36 ?
Uosat F 30 Jul 16:18:40 16:23:38 63° 72° (ENE) 16:28:38 435.120 FM
KITSAT 1 30 Jul 16:23:13 16:30:56 50° 247° (WSW) 16:38:35 435.175 FM
JAS-2 30 Jul 17:05:05 17:10:52 24° 60° (ENE) 17:16:20 435.800 - 435.900 CW/SSB, 435.910 FM
JAS-1B 30 Jul 17:14:17 17:20:10 18° 278° (W) 17:26:23 435.800 - 435.900 CW/SSB
OPAL 30 Jul 17:14:46 17:19:47 55° 103° (ESE) 17:24:49 ?
TMSAT-1 30 Jul 17:20:26 17:21:06 10° 274° (W) 17:21:46 436.925 FM
Saudisat 1A 30 Jul 17:22:58 17:26:40 26° 246° (WSW) 17:30:20 436.775 MHz
AO-7 30 Jul 17:31:20 17:39:15 45° 260° (W) 17:47:12 29.400 - 29.500 MHz
Hamsat 30 Jul 17:36:02 17:39:33 27° 68° (ENE) 17:43:05 145.90 MHz
Uosat F 30 Jul 17:59:42 18:02:51 17° 269° (W) 18:06:02 435.120 FM
RS-15 30 Jul 18:04:42 18:13:21 26° 352° (N) 18:22:04 29.354 - 29.394 USB, Beacon 29.352 USB
SO-67 30 Jul 18:27:26 18:28:58 13° 65° (ENE) 18:30:31 435.3500 MHz FM
JAS-2 30 Jul 18:47:28 18:55:16 80° 257° (WSW) 19:02:30 435.800 - 435.900 CW/SSB, 435.910 FM
OPAL 30 Jul 18:54:31 18:58:17 22° 300° (WNW) 19:02:05 ?
SO-50 30 Jul 19:09:29 19:11:24 12° 29° (NNE) 19:13:20 436.795 FM
Hamsat 30 Jul 19:11:51 19:15:27 28° 265° (W) 19:19:06 145.90 MHz
STRAND 1 30 Jul 19:40:57 19:45:51 44° 99° (E) 19:50:42 ?
SO-67 30 Jul 19:58:21 20:01:40 43° 261° (W) 20:05:01 435.3500 MHz FM
HO-68 30 Jul 20:09:16 20:15:24 32° 59° (ENE) 20:21:33 435.675 MHz FM
RS-15 30 Jul 20:20:29 20:30:11 34° 27° (NNE) 20:40:02 29.354 - 29.394 USB, Beacon 29.352 USB
JAS-2 30 Jul 20:36:47 20:41:07 16° 273° (W) 20:45:20 435.800 - 435.900 CW/SSB, 435.910 FM
Oscar 11 30 Jul 20:44:18 20:45:59 12° 60° (ENE) 20:47:40 145.825 FM, Beacon 2401.500 USB
SO-50 30 Jul 20:48:25 20:53:04 51° 50° (NE) 20:57:45 436.795 FM
UOSAT-12 30 Jul 21:00:09 21:01:56 12° 28° (NNE) 21:03:42 437.025 FM, 437.400 FM
MaSat-1 30 Jul 21:13:27 21:17:28 52° 111° (ESE) 21:22:07 437.345 MHz
STRAND 1 30 Jul 21:20:41 21:24:47 25° 296° (WNW) 21:28:52 ?
UKube-1 30 Jul 21:34:07 21:38:29 77° 74° (ENE) 21:42:52 145.840 MHz, 145.915 MHz
HO-68 30 Jul 21:55:45 22:02:45 56° 258° (WSW) 22:09:48 435.675 MHz FM
Oscar 11 30 Jul 22:17:16 22:21:34 75° 258° (WSW) 22:25:54 145.825 FM, Beacon 2401.500 USB
SO-50 30 Jul 22:29:38 22:33:20 23° 248° (WSW) 22:37:03 436.795 FM
RS-15 30 Jul 22:33:13 22:44:18 84° 55° (NE) 22:55:47 29.354 - 29.394 USB, Beacon 29.352 USB
UOSAT-12 30 Jul 22:38:38 22:43:15 48° 49° (NE) 22:47:47 437.025 FM, 437.400 FM
FUNcube-1 30 Jul 22:44:15 22:48:33 80° 76° (ENE) 22:52:47 145.950 - 145.970 MHz USB
MaSat-1 30 Jul 22:51:43 22:55:11 22° 314° (NW) 22:59:00 437.345 MHz
UKube-1 30 Jul 23:14:21 23:15:13 11° 271° (W) 23:16:06 145.840 MHz, 145.915 MHz
PCSat 30 Jul 23:20:59 23:21:56 10° 101° (E) 23:22:53 145.825 MHz
ISS 30 Jul 23:27:12 23:30:25 47° 142° (SE) 23:33:39 145.800 FM
UOSAT-12 31 Jul 00:19:23 00:23:07 24° 248° (WSW) 00:26:48 437.025 FM, 437.400 FM
Sapphire 31 Jul 00:26:21 00:31:18 39° 112° (ESE) 00:36:18 437.095 MHz 1200 baud AX-25 AFSK
RS-15 31 Jul 00:46:46 00:55:25 28° 257° (WSW) 01:04:20 29.354 - 29.394 USB, Beacon 29.352 USB
PCSat 31 Jul 00:59:00 01:04:23 77° 119° (ESE) 01:09:50 145.825 MHz
ISS 31 Jul 01:04:07 01:07:13 34° 341° (NNW) 01:10:20 145.800 FM
Uribyol 2 31 Jul 02:02:39 02:04:33 12° 88° (E) 02:06:26 436.500 FM
AO-27 31 Jul 02:03:39 02:05:26 12° 88° (E) 02:07:13 436.795 MHz FM
Sapphire 31 Jul 02:09:49 02:14:45 36° 311° (NW) 02:19:45 437.095 MHz 1200 baud AX-25 AFSK
Oscar 19 31 Jul 02:26:33 02:31:27 42° 98° (E) 02:36:21 437.125 CW, 437.150 USB
AO-Echo 31 Jul 02:26:56 02:30:39 20° 91° (E) 02:34:15 ?
Gurwin Techsat 1B 31 Jul 02:39:01 02:39:50 10° 86° (E) 02:40:39 435.225 FM
ISS 31 Jul 02:41:55 02:44:36 22° 1° (N) 02:47:18 145.800 FM
PCSat 31 Jul 02:44:19 02:48:25 21° 319° (NW) 02:52:33 145.825 MHz
OPAL 31 Jul 02:54:59 02:58:03 17° 57° (ENE) 03:01:08 ?
Oscar 16 31 Jul 02:55:10 03:00:22 80° 104° (ESE) 03:05:33 437.025 USB, Beacon 2401.1428
JAS-1B 31 Jul 03:04:53 03:13:22 38° 92° (E) 03:20:40 435.800 - 435.900 CW/SSB
ITAMSAT 1 31 Jul 03:20:39 03:25:47 61° 101° (ESE) 03:30:53 435.822 SSB
Uribyol 2 31 Jul 03:39:31 03:44:43 87° 285° (WNW) 03:49:52 436.500 FM
AO-27 31 Jul 03:40:26 03:45:40 88° 284° (WNW) 03:50:50 436.795 MHz FM
TMSAT-1 31 Jul 03:49:41 03:54:33 36° 97° (E) 03:59:23 436.925 FM
AO-Echo 31 Jul 04:04:50 04:09:44 50° 290° (WNW) 04:14:26 ?
Oscar 19 31 Jul 04:06:19 04:10:35 27° 296° (WNW) 04:14:52 437.125 CW, 437.150 USB
Gurwin Techsat 1B 31 Jul 04:15:16 04:20:37 82° 104° (ESE) 04:25:56 435.225 FM
ISS 31 Jul 04:18:48 04:21:58 37° 21° (NNE) 04:25:07 145.800 FM
Uosat F 31 Jul 04:26:07 04:29:22 17° 91° (E) 04:32:35 435.120 FM
OPAL 31 Jul 04:31:28 04:36:24 70° 255° (WSW) 04:41:22 ?
Oscar 16 31 Jul 04:36:09 04:39:04 15° 301° (WNW) 04:41:58 437.025 USB, Beacon 2401.1428
JAS-1B 31 Jul 04:55:06 05:04:12 56° 295° (WNW) 05:12:01 435.800 - 435.900 CW/SSB
KITSAT 1 31 Jul 05:00:00 05:05:41 21° 103° (ESE) 05:11:22 435.175 FM
ITAMSAT 1 31 Jul 05:01:11 05:04:49 20° 299° (WNW) 05:08:26 435.822 SSB
Uribyol 2 31 Jul 05:21:07 05:23:24 13° 303° (WNW) 05:25:41 436.500 FM
AO-27 31 Jul 05:21:59 05:24:24 13° 303° (WNW) 05:26:49 436.795 MHz FM
STRAND 1 31 Jul 05:23:31 05:25:03 11° 55° (NE) 05:26:35 ?
TMSAT-1 31 Jul 05:29:45 05:34:23 32° 294° (WNW) 05:39:01 436.925 FM
MaSat-1 31 Jul 05:30:22 05:34:48 26° 49° (NE) 05:39:04 437.345 MHz
AO-7 31 Jul 05:30:34 05:38:48 59° 103° (ESE) 05:46:56 29.400 - 29.500 MHz
ISS 31 Jul 05:55:31 05:58:43 41° 219° (SW) 06:01:54 145.800 FM
Gurwin Techsat 1B 31 Jul 05:56:53 05:59:54 16° 302° (WNW) 06:02:55 435.225 FM
JAS-2 31 Jul 06:00:19 06:01:29 11° 83° (E) 06:02:37 435.800 - 435.900 CW/SSB, 435.910 FM
Uosat F 31 Jul 06:03:37 06:08:34 60° 288° (WNW) 06:13:28 435.120 FM
JAS-1B 31 Jul 06:47:34 06:52:27 16° 318° (NW) 06:57:04 435.800 - 435.900 CW/SSB
KITSAT 1 31 Jul 06:51:57 07:00:05 87° 302° (WNW) 07:08:14 435.175 FM
Hamsat 31 Jul 06:55:21 06:59:30 44° 98° (E) 07:03:39 145.90 MHz
STRAND 1 31 Jul 06:58:14 07:03:22 75° 74° (ENE) 07:08:31 ?
MaSat-1 31 Jul 07:07:18 07:12:28 54° 249° (WSW) 07:17:19 437.345 MHz
SO-67 31 Jul 07:22:34 07:23:45 11° 90° (E) 07:24:56 435.3500 MHz FM
AO-7 31 Jul 07:23:53 07:31:12 36° 303° (WNW) 07:38:29 29.400 - 29.500 MHz
Saudisat 1A 31 Jul 07:29:59 07:34:17 54° 120° (ESE) 07:38:37 436.775 MHz
Sapphire 31 Jul 07:31:06 07:32:48 11° 29° (NNE) 07:34:30 437.095 MHz 1200 baud AX-25 AFSK
JAS-2 31 Jul 07:41:48 07:47:46 85° 104° (ESE) 07:53:06 435.800 - 435.900 CW/SSB, 435.910 FM
PCSat 31 Jul 08:03:07 08:06:45 18° 38° (NE) 08:10:22 145.825 MHz
Hamsat 31 Jul 08:32:08 08:35:09 19° 295° (WNW) 08:38:11 145.90 MHz
STRAND 1 31 Jul 08:40:27 08:43:07 14° 271° (W) 08:45:47 ?
KITSAT 1 31 Jul 08:49:55 08:56:39 28° 326° (NW) 09:03:23 435.175 FM
SO-67 31 Jul 08:53:44 08:57:05 44° 287° (WNW) 09:00:23 435.3500 MHz FM
Saudisat 1A 31 Jul 09:10:40 09:14:11 23° 319° (NW) 09:17:43 436.775 MHz
Sapphire 31 Jul 09:12:29 09:17:42 44° 52° (NE) 09:22:52 437.095 MHz 1200 baud AX-25 AFSK
HO-68 31 Jul 09:22:15 09:28:07 27° 93° (E) 09:33:56 435.675 MHz FM
UKube-1 31 Jul 09:23:17 09:24:46 12° 89° (E) 09:26:15 145.840 MHz, 145.915 MHz
JAS-2 31 Jul 09:28:33 09:31:55 16° 306° (NW) 09:35:07 435.800 - 435.900 CW/SSB, 435.910 FM
